Menominee, MI

12:08 AM CST on February 12, 2016 (GMT -0600)
Menominee-Marinette Twin County

Weather History for KMNM - April, 2014

Change the Weather History Date:

Saturday, April 12, 2014

  Actual Average Record
Temperature  
Mean Temperature 37 °F -  
Max Temperature 41 °F 51 °F 85 °F (1977)
Min Temperature 33 °F 31 °F 16 °F (1950)
Degree Days  
Heating Degree Days 28    
Moisture  
Dew Point 35 °F    
Average Humidity 92    
Maximum Humidity 100    
Minimum Humidity 81    
Precipitation  
Precipitation 0.06 in - - ()
Sea Level Pressure  
Sea Level Pressure 29.94 in    
Wind  
Wind Speed 7 mph (ENE)    
Max Wind Speed 17 mph    
Max Gust Speed 22 mph    
Visibility 8 miles    
Events      
Averages and records for this station are not official NWS values.
T = Trace of Precipitation, MM = Missing Value Source: NWS Daily Summary

Daily Weather History Graph

Daily Weather History Graph

Search for Another Location

Airport or City:

Trip Planner

Search our weather history database for the weather conditions in past years. The results will help you decide how hot, cold, wet, or windy it might be!

Date:

Astronomy

Apr. 12, 2014 Rise Set
Actual Time 6:10 AM CDT 7:32 PM CDT
Civil Twilight 5:40 AM CDT 8:03 PM CDT
Nautical Twilight 5:03 AM CDT 8:39 PM CDT
Astronomical Twilight 4:24 AM CDT 9:19 PM CDT
Moon 5:04 PM CDT 4:44 AM CDT
Length of Visible Light 14h 22m
Length of Day
13h 21m
Waxing Gibbous, 93% of the Moon is Illuminated
Apr 12
Waxing Gibbous
Apr 15
Full
Apr 22
Last Quarter
Apr 29
New
May 6
First Quarter

Hourly Weather History & Observations

Time (CDT) Temp. Windchill Dew Point Humidity Pressure Visibility Wind Dir Wind Speed Gust Speed Precip Events Conditions
12:15 AM 37.4 °F 34.9 °F 33.8 °F 87% 30.00 in 8.0 mi SSW 3.5 mph - N/A   Clear
12:35 AM 37.4 °F 34.9 °F 35.6 °F 93% 29.99 in 10.0 mi SSW 3.5 mph - N/A   Clear
12:55 AM 39.2 °F 35.9 °F 35.6 °F 87% 30.00 in 10.0 mi WSW 4.6 mph - N/A   Clear
1:15 AM 39.2 °F - 35.6 °F 87% 30.00 in 10.0 mi Calm Calm - N/A   Clear
1:35 AM 39.2 °F 35.9 °F 35.6 °F 87% 30.01 in 10.0 mi WSW 4.6 mph - N/A   Clear
1:55 AM 39.2 °F 35.9 °F 35.6 °F 87% 30.01 in 10.0 mi WSW 4.6 mph - N/A   Clear
2:15 AM 39.2 °F - 35.6 °F 87% 30.01 in 10.0 mi Calm Calm - N/A   Clear
2:35 AM 37.4 °F - 33.8 °F 87% 30.00 in 6.0 mi Calm Calm - N/A   Clear
2:55 AM 35.6 °F - 33.8 °F 93% 30.00 in 5.0 mi Calm Calm - N/A   Clear
3:15 AM 35.6 °F - 35.6 °F 100% 30.01 in 5.0 mi Calm Calm - N/A   Mostly Cloudy
3:35 AM 35.6 °F - 33.8 °F 93% 30.01 in 5.0 mi Calm Calm - N/A   Overcast
3:55 AM 35.6 °F - 35.6 °F 100% 30.02 in 5.0 mi Calm Calm - N/A   Overcast
4:15 AM 33.8 °F - 33.8 °F 100% 30.03 in 4.0 mi Calm Calm - N/A   Overcast
4:35 AM 35.6 °F - 33.8 °F 93% 30.03 in 5.0 mi Calm Calm - N/A   Overcast
4:55 AM 33.8 °F 30.8 °F 32.0 °F 93% 30.02 in 5.0 mi East 3.5 mph - N/A   Scattered Clouds
5:15 AM 35.6 °F 29.9 °F 35.6 °F 100% 30.03 in 5.0 mi ENE 6.9 mph - N/A   Partly Cloudy
5:35 AM 35.6 °F 29.9 °F 33.8 °F 93% 30.03 in 5.0 mi East 6.9 mph - N/A   Mostly Cloudy
5:55 AM 37.4 °F 34.9 °F 35.6 °F 93% 30.04 in 8.0 mi NNE 3.5 mph - N/A   Scattered Clouds
6:15 AM 37.4 °F 33.8 °F 35.6 °F 93% 30.03 in 9.0 mi NE 4.6 mph - N/A   Mostly Cloudy
6:35 AM 37.4 °F 32.8 °F 35.6 °F 93% 30.04 in 7.0 mi NE 5.8 mph - N/A   Scattered Clouds
6:55 AM 37.4 °F 33.8 °F 35.6 °F 93% 30.03 in 7.0 mi North 4.6 mph - N/A   Mostly Cloudy
7:15 AM 39.2 °F 35.0 °F 35.6 °F 87% 30.02 in 8.0 mi ENE 5.8 mph - N/A   Scattered Clouds
7:35 AM 39.2 °F - 35.6 °F 87% 30.03 in 10.0 mi Calm Calm - N/A   Mostly Cloudy
7:55 AM 39.2 °F - 35.6 °F 87% 30.05 in 10.0 mi Calm Calm - N/A   Overcast
8:15 AM 39.2 °F 32.0 °F 35.6 °F 87% 30.03 in 10.0 mi East 11.5 mph - N/A   Overcast
8:35 AM 39.2 °F 30.5 °F 35.6 °F 87% 30.03 in 10.0 mi ENE 16.1 mph - N/A   Overcast
8:55 AM 37.4 °F 29.3 °F 33.8 °F 87% 30.03 in 10.0 mi ENE 12.7 mph - N/A   Mostly Cloudy
9:15 AM 37.4 °F 29.3 °F 33.8 °F 87% 30.02 in 10.0 mi ENE 12.7 mph - N/A   Overcast
9:35 AM 37.4 °F 29.3 °F 35.6 °F 93% 30.03 in 10.0 mi ENE 12.7 mph - N/A   Overcast
9:55 AM 39.2 °F 31.2 °F 35.6 °F 87% 30.04 in 10.0 mi ENE 13.8 mph - N/A   Overcast
10:15 AM 39.2 °F 30.5 °F 33.8 °F 81% 30.03 in 10.0 mi ENE 16.1 mph - N/A   Overcast
10:35 AM 37.4 °F 28.2 °F 35.6 °F 93% 30.03 in 10.0 mi ENE 16.1 mph 20.7 mph N/A   Overcast
10:55 AM 39.2 °F 31.6 °F 37.4 °F 93% 30.02 in 10.0 mi ENE 12.7 mph 18.4 mph N/A   Overcast
11:15 AM 39.2 °F 32.0 °F 35.6 °F 87% 30.03 in 10.0 mi NE 11.5 mph - N/A   Overcast
11:35 AM 41.0 °F 35.8 °F 37.4 °F 87% 30.03 in 10.0 mi SSE 8.1 mph - N/A   Overcast
11:55 AM 39.2 °F 33.0 °F 35.6 °F 87% 30.01 in 10.0 mi East 9.2 mph - N/A   Scattered Clouds
12:15 PM 39.2 °F 31.6 °F 35.6 °F 87% 30.00 in 10.0 mi East 12.7 mph - N/A   Mostly Cloudy
12:35 PM 37.4 °F 31.4 °F 33.8 °F 87% 30.00 in 10.0 mi ESE 8.1 mph - N/A   Mostly Cloudy
12:55 PM 37.4 °F 32.1 °F 33.8 °F 87% 29.98 in 7.0 mi East 6.9 mph - 0.01 in   Overcast
1:15 PM 37.4 °F 30.8 °F 35.6 °F 93% 29.95 in 7.0 mi East 9.2 mph - 0.02 in   Overcast
1:35 PM 37.4 °F 29.3 °F 35.6 °F 93% 29.93 in 9.0 mi ENE 12.7 mph - 0.03 in   Overcast
1:55 PM 39.2 °F 31.6 °F 35.6 °F 87% 29.91 in 10.0 mi ENE 12.7 mph - 0.03 in   Overcast
2:15 PM 39.2 °F 30.8 °F 35.6 °F 87% 29.91 in 10.0 mi ENE 15.0 mph 19.6 mph N/A   Overcast
2:35 PM 39.2 °F 30.2 °F 35.6 °F 87% 29.88 in 10.0 mi ENE 17.3 mph 21.9 mph N/A   Overcast
2:55 PM 39.2 °F 30.8 °F 35.6 °F 87% 29.88 in 10.0 mi East 15.0 mph - N/A   Overcast
3:15 PM 37.4 °F 28.5 °F 35.6 °F 93% 29.88 in 5.0 mi ENE 15.0 mph - 0.01 in   Overcast
3:35 PM 37.4 °F 28.5 °F 35.6 °F 93% 29.87 in 8.0 mi ENE 15.0 mph - 0.01 in   Overcast
3:55 PM 37.4 °F 29.3 °F 35.6 °F 93% 29.85 in 9.0 mi ENE 12.7 mph 18.4 mph 0.01 in   Overcast
4:15 PM 37.4 °F 29.8 °F 35.6 °F 93% 29.84 in 10.0 mi ENE 11.5 mph - N/A   Overcast
4:35 PM 37.4 °F 28.9 °F 35.6 °F 93% 29.84 in 10.0 mi ENE 13.8 mph - N/A   Overcast
4:55 PM 37.4 °F 28.5 °F 35.6 °F 93% 29.84 in 10.0 mi ENE 15.0 mph 19.6 mph N/A   Overcast
5:15 PM 37.4 °F 28.5 °F 35.6 °F 93% 29.83 in 9.0 mi ENE 15.0 mph - N/A   Overcast
5:35 PM 37.4 °F 28.9 °F 35.6 °F 93% 29.83 in 9.0 mi ENE 13.8 mph - N/A   Overcast
5:55 PM 37.4 °F 29.3 °F 35.6 °F 93% 29.84 in 8.0 mi ENE 12.7 mph 21.9 mph N/A   Overcast
6:15 PM 37.4 °F 29.3 °F 35.6 °F 93% 29.84 in 5.0 mi ENE 12.7 mph - N/A   Overcast
6:35 PM 37.4 °F 28.2 °F 35.6 °F 93% 29.83 in 7.0 mi ENE 16.1 mph - N/A   Overcast
6:55 PM 37.4 °F 28.5 °F 35.6 °F 93% 29.84 in 6.0 mi ENE 15.0 mph - N/A   Overcast
7:15 PM 37.4 °F 28.2 °F 35.6 °F 93% 29.83 in 3.0 mi ENE 16.1 mph 21.9 mph N/A   Overcast
7:35 PM 37.4 °F 28.5 °F 35.6 °F 93% 29.84 in 2.5 mi ENE 15.0 mph - N/A   Overcast
7:55 PM 37.4 °F 27.8 °F 35.6 °F 93% 29.83 in 5.0 mi ENE 17.3 mph 20.7 mph 0.01 in   Overcast
8:15 PM 37.4 °F 28.2 °F 35.6 °F 93% 29.83 in 3.0 mi ENE 16.1 mph 21.9 mph N/A   Overcast
8:35 PM 37.4 °F 28.5 °F 35.6 °F 93% 29.83 in 5.0 mi ENE 15.0 mph - N/A   Overcast
8:55 PM 37.4 °F 28.5 °F 35.6 °F 93% 29.83 in 4.0 mi ENE 15.0 mph 20.7 mph N/A   Overcast
9:15 PM 35.6 °F 26.6 °F 33.8 °F 93% 29.82 in 6.0 mi ENE 13.8 mph - N/A   Overcast
9:35 PM 35.6 °F 27.1 °F 35.6 °F 100% 29.81 in 7.0 mi ENE 12.7 mph - N/A   Overcast
9:55 PM 35.6 °F 26.6 °F 33.8 °F 93% 29.81 in 7.0 mi ENE 13.8 mph 18.4 mph N/A   Overcast
10:15 PM 35.6 °F 27.5 °F 35.6 °F 100% 29.81 in 5.0 mi ENE 11.5 mph 20.7 mph N/A   Overcast
10:35 PM 35.6 °F 26.6 °F 35.6 °F 100% 29.80 in 5.0 mi ENE 13.8 mph 17.3 mph N/A   Overcast
10:55 PM 35.6 °F 28.6 °F 35.6 °F 100% 29.79 in 3.0 mi NE 9.2 mph - N/A   Overcast
11:15 PM 35.6 °F 28.0 °F 35.6 °F 100% 29.78 in 3.0 mi NE 10.4 mph - N/A   Overcast
11:35 PM 35.6 °F 28.6 °F 35.6 °F 100% 29.77 in 3.0 mi ENE 9.2 mph - N/A   Overcast
11:55 PM 35.6 °F 28.0 °F 35.6 °F 100% 29.76 in 2.5 mi ENE 10.4 mph - N/A   Overcast